North Bend, OR

11:50 PM PDT on May 26, 2017 (GMT -0700)
North Bend Municipal

Weather History for KOTH - May, 2013

Change the Weather History Date:

Friday, May 3, 2013

  Actual Average Record
Temperature  
Mean Temperature 53 °F 51 °F  
Max Temperature 63 °F 58 °F 85 °F (1944)
Min Temperature 43 °F 45 °F 31 °F (1918)
Degree Days  
Heating Degree Days 12 14  
Month to date heating degree days 39 42  
Since 1 July heating degree days 4019 4228  
Cooling Degree Days 0 0  
Month to date cooling degree days 0 0  
Year to date cooling degree days 0 0  
Growing Degree Days 1 (Base 50)    
Moisture  
Dew Point 47 °F    
Average Humidity 82    
Maximum Humidity 100    
Minimum Humidity 60    
Precipitation  
Precipitation 0.00 in 0.12 in 1.09 in (1993)
Month to date precipitation 0.00 0.36  
Year to date precipitation 12.34 31.14  
Sea Level Pressure  
Sea Level Pressure 30.21 in    
Wind  
Wind Speed 12 mph (North)    
Max Wind Speed 28 mph    
Max Gust Speed 35 mph    
Visibility 8 miles    
Events      
T = Trace of Precipitation, MM = Missing Value Source: NWS Daily Summary

Daily Weather History Graph

Daily Weather History Graph

Search for Another Location

Airport or City:

Trip Planner

Search our weather history database for the weather conditions in past years. The results will help you decide how hot, cold, wet, or windy it might be!

Date:

Astronomy

May. 03, 2013 Rise Set
Actual Time 6:06 AM PDT 8:21 PM PDT
Civil Twilight 5:35 AM PDT 8:53 PM PDT
Nautical Twilight 4:56 AM PDT 9:32 PM PDT
Astronomical Twilight 4:12 AM PDT 10:16 PM PDT
Moon 2:45 AM PDT (5/3) 2:12 PM PDT (5/3)
Length of Visible Light 15h 18m
Length of Day
14h 15m
Waning Crescent, 36% of the Moon is Illuminated
May 3
Waning Crescent
May 9
New
May 17
First Quarter
May 24
Full
May 31
Last Quarter

Hourly Weather History & Observations

Time (PDT) Temp. Windchill Dew Point Humidity Pressure Visibility Wind Dir Wind Speed Gust Speed Precip Events Conditions
12:15 AM 50.0 °F - 46.4 °F 87% 30.30 in 7.0 mi North 13.8 mph - N/A   Clear
12:35 AM 50.0 °F - 46.4 °F 87% 30.30 in 9.0 mi NNE 10.4 mph - N/A   Clear
12:55 AM 48.2 °F - 46.4 °F 93% 30.30 in 10.0 mi NNE 6.9 mph - N/A   Clear
1:15 AM 48.2 °F - 44.6 °F 87% 30.30 in 10.0 mi North 8.1 mph - N/A   Clear
1:35 AM 48.2 °F - 46.4 °F 93% 30.30 in 8.0 mi NNE 9.2 mph - N/A   Clear
1:55 AM 48.2 °F - 44.6 °F 87% 30.30 in 10.0 mi NNE 9.2 mph - N/A   Clear
2:15 AM 48.2 °F - 44.6 °F 87% 30.29 in 10.0 mi NE 5.8 mph - N/A   Clear
2:35 AM 46.4 °F 45.2 °F 44.6 °F 93% 30.29 in 10.0 mi NE 3.5 mph - N/A   Clear
2:55 AM 46.4 °F 45.2 °F 46.4 °F 100% 30.29 in 10.0 mi North 3.5 mph - N/A   Clear
3:15 AM 46.4 °F 42.9 °F 44.6 °F 93% 30.29 in 10.0 mi North 6.9 mph - N/A   Clear
3:35 AM 48.2 °F - 44.6 °F 87% 30.29 in 10.0 mi NNE 8.1 mph - N/A   Clear
3:55 AM 46.4 °F 42.4 °F 44.6 °F 93% 30.29 in 10.0 mi NNE 8.1 mph - N/A   Clear
4:15 AM 46.4 °F 43.5 °F 44.6 °F 93% 30.29 in 10.0 mi NNE 5.8 mph - N/A   Clear
4:35 AM 46.4 °F 45.2 °F 44.6 °F 93% 30.29 in 10.0 mi NNE 3.5 mph - N/A   Clear
4:55 AM 44.6 °F 43.1 °F 44.6 °F 100% 30.28 in 10.0 mi NE 3.5 mph - N/A   Clear
5:15 AM 44.6 °F - 44.6 °F 100% 30.28 in 9.0 mi Calm Calm - N/A   Clear
5:35 AM 44.6 °F 43.1 °F 44.6 °F 100% 30.28 in 5.0 mi SSE 3.5 mph - N/A   Partly Cloudy
5:55 AM 42.8 °F - 42.8 °F 100% 30.28 in 9.0 mi Calm Calm - N/A   Partly Cloudy
6:15 AM 42.8 °F 41.1 °F 42.8 °F 100% 30.28 in 5.0 mi ESE 3.5 mph - N/A   Partly Cloudy
6:35 AM 42.8 °F 41.1 °F 42.8 °F 100% 30.28 in 1.5 mi SSE 3.5 mph - N/A   Scattered Clouds
6:55 AM 42.8 °F 41.1 °F 42.8 °F 100% 30.28 in 5.0 mi South 3.5 mph - N/A   Scattered Clouds
7:15 AM 44.6 °F - 42.8 °F 93% 30.29 in 0.2 mi Calm Calm - N/A   Overcast
7:35 AM 44.6 °F - 44.6 °F 100% 30.30 in 0.2 mi Calm Calm - N/A   Overcast
7:55 AM 44.6 °F - 44.6 °F 100% 30.30 in 0.5 mi Calm Calm - N/A   Overcast
8:15 AM 46.4 °F - 46.4 °F 100% 30.29 in 5.0 mi Calm Calm - N/A   Scattered Clouds
8:35 AM 50.0 °F - 48.2 °F 94% 30.28 in 5.0 mi NNE 6.9 mph - N/A   Scattered Clouds
8:55 AM 51.8 °F - 48.2 °F 88% 30.28 in 5.0 mi North 6.9 mph - N/A   Scattered Clouds
9:15 AM 53.6 °F - 48.2 °F 82% 30.28 in 7.0 mi North 3.5 mph - N/A   Clear
9:35 AM 53.6 °F - 48.2 °F 82% 30.28 in 7.0 mi North 5.8 mph - N/A   Clear
9:55 AM 55.4 °F - 48.2 °F 77% 30.27 in 7.0 mi North 4.6 mph - N/A   Clear
10:15 AM 57.2 °F - 48.2 °F 72% 30.27 in 7.0 mi NNW 5.8 mph - N/A   Clear
10:35 AM 57.2 °F - 48.2 °F 72% 30.26 in 7.0 mi NNW 6.9 mph - N/A   Clear
10:55 AM 59.0 °F - 48.2 °F 67% 30.25 in 7.0 mi NNW 8.1 mph - N/A   Clear
11:15 AM 60.8 °F - 48.2 °F 63% 30.24 in 10.0 mi NNW 11.5 mph - N/A   Clear
11:35 AM 60.8 °F - 48.2 °F 63% 30.24 in 10.0 mi NNW 12.7 mph - N/A   Clear
11:55 AM 60.8 °F - 46.4 °F 59% 30.23 in 10.0 mi North 18.4 mph 21.9 mph N/A   Clear
12:15 PM 60.8 °F - 48.2 °F 63% 30.22 in 10.0 mi North 19.6 mph 24.2 mph N/A   Clear
12:35 PM 60.8 °F - 48.2 °F 63% 30.21 in 10.0 mi North 16.1 mph - N/A   Clear
12:55 PM 60.8 °F - 48.2 °F 63% 30.20 in 10.0 mi North 21.9 mph 27.6 mph N/A   Clear
1:15 PM 60.8 °F - 48.2 °F 63% 30.20 in 10.0 mi North 21.9 mph 27.6 mph N/A   Clear
1:35 PM 60.8 °F - 48.2 °F 63% 30.19 in 10.0 mi North 25.3 mph 29.9 mph N/A   Clear
1:55 PM 59.0 °F - 48.2 °F 67% 30.19 in 10.0 mi North 25.3 mph 34.5 mph N/A   Clear
2:15 PM 57.2 °F - 50.0 °F 77% 30.19 in 10.0 mi North 28.8 mph 35.7 mph N/A   Clear
2:35 PM 59.0 °F - 50.0 °F 72% 30.18 in 10.0 mi North 25.3 mph 35.7 mph N/A   Clear
2:55 PM 59.0 °F - 50.0 °F 72% 30.18 in 10.0 mi North 27.6 mph 32.2 mph N/A   Clear
3:15 PM 60.8 °F - 50.0 °F 68% 30.17 in 10.0 mi North 26.5 mph 34.5 mph N/A   Clear
3:35 PM 59.0 °F - 48.2 °F 67% 30.17 in 10.0 mi North 28.8 mph 36.8 mph N/A   Clear
3:55 PM 59.0 °F - 48.2 °F 67% 30.17 in 10.0 mi North 25.3 mph 34.5 mph N/A   Clear
4:15 PM 60.8 °F - 48.2 °F 63% 30.16 in 10.0 mi North 17.3 mph 27.6 mph N/A   Clear
4:35 PM 59.0 °F - 48.2 °F 67% 30.14 in 10.0 mi North 24.2 mph 28.8 mph N/A   Clear
4:55 PM 60.8 °F - 48.2 °F 63% 30.14 in 10.0 mi North 19.6 mph - N/A   Clear
5:15 PM 60.8 °F - 48.2 °F 63% 30.14 in 10.0 mi North 19.6 mph 23.0 mph N/A   Clear
5:35 PM 59.0 °F - 48.2 °F 67% 30.14 in 10.0 mi North 20.7 mph 26.5 mph N/A   Clear
5:55 PM 59.0 °F - 48.2 °F 67% 30.13 in 10.0 mi North 12.7 mph 18.4 mph N/A   Clear
6:15 PM 57.2 °F - 48.2 °F 72% 30.13 in 10.0 mi North 17.3 mph 21.9 mph N/A   Clear
6:35 PM 55.4 °F - 48.2 °F 77% 30.12 in 10.0 mi North 23.0 mph 27.6 mph N/A   Clear
6:55 PM 55.4 °F - 48.2 °F 77% 30.12 in 10.0 mi North 18.4 mph 24.2 mph N/A   Clear
7:15 PM 55.4 °F - 48.2 °F 77% 30.10 in 10.0 mi North 21.9 mph 25.3 mph N/A   Clear
7:35 PM 55.4 °F - 48.2 °F 77% 30.10 in 9.0 mi North 18.4 mph 24.2 mph N/A   Clear
7:55 PM 53.6 °F - 48.2 °F 82% 30.10 in 10.0 mi North 20.7 mph - N/A   Clear
8:15 PM 53.6 °F - 48.2 °F 82% 30.09 in 10.0 mi North 19.6 mph 24.2 mph N/A   Clear
8:35 PM 51.8 °F - 48.2 °F 88% 30.10 in 9.0 mi North 19.6 mph - N/A   Clear
8:55 PM 51.8 °F - 48.2 °F 88% 30.10 in 10.0 mi North 17.3 mph - N/A   Clear
9:15 PM 51.8 °F - 48.2 °F 88% 30.11 in 10.0 mi North 12.7 mph - N/A   Clear
9:35 PM 51.8 °F - 48.2 °F 88% 30.12 in 8.0 mi North 6.9 mph - N/A   Clear
9:55 PM 51.8 °F - 48.2 °F 88% 30.13 in 8.0 mi North 6.9 mph - N/A   Clear
10:15 PM 51.8 °F - 48.2 °F 88% 30.12 in 8.0 mi North 10.4 mph - N/A   Clear
10:35 PM 51.8 °F - 48.2 °F 88% 30.12 in 8.0 mi NNW 10.4 mph - N/A   Clear
10:55 PM 50.0 °F - 48.2 °F 94% 30.11 in 7.0 mi North 8.1 mph - N/A   Clear
11:15 PM 50.0 °F - 48.2 °F 94% 30.10 in 8.0 mi North 4.6 mph - N/A   Clear
11:35 PM 50.0 °F - 48.2 °F 94% 30.10 in 7.0 mi North 4.6 mph - N/A   Clear
11:55 PM 48.2 °F - 48.2 °F 100% 30.10 in 7.0 mi Calm Calm - N/A   Clear